Location: Unspecified
(33.2407°S, 0.0000°E)
Time: 12:47:22
(UTC+00:00)

Hubble Space Telescope - Pass Details

Date: 26 May 2019
Orbit: 536 x 540 km, 28.5° (Epoch: 25 June)

Event Time Altitude Azimuth Distance (km) Brightness Sun altitude
Exits shadow 04:23:42 16° 32° (NNE) 1,459 3.3 -30.4°
Drops below altitude 10° 04:24:47 10° 42° (NE) 1,792 4.0 -30.2°
Sets 04:27:18 0° 54° (NE) 2,681 5.2 -29.7°
